Tracking 20093 objects as of 16-Dec-2019
HD Live streaming from Space Station
objects crossing your sky now

COSMOS 2251 DEB

Track COSMOS 2251 DEB now!
10-day predictions


NORAD ID: 39585
Int'l Code: 1993-036BUQ
Perigee: 670.8 km
Apogee: 772.9 km
Inclination: 74.0 °
Period: 99.1 minutes
Semi major axis: 7092 km
RCS: 0.0032 m2 (small)
Launch date: June 16, 1993
Source: Commonwealth of Independent States (former USSR) (CIS)
Launch site: PLESETSK MISSILE AND SPACE COMPLEX (PKMTR)

Note: This is SATELLITE DEBRIS
aabbcc
Your satellite tracking list
Your tracking list is empty




NASA's NSSDC Master Catalog

Two Line Element Set (TLE):
1 39585U 93036BUQ 19349.11511382 +.00000099 +00000-0 +29837-4 0  9990
2 39585 074.0424 124.3933 0071963 080.1121 280.8155 14.53356640306765
Source of the keplerian elements: AFSPC